STARLINK-1905

Last updated on Tue Nov 24 2020 00:02:02 GMT+0000 (Coordinated Universal Time)

1 46746U 20074H 20328.58334491 -.00016892 00000-0 -17893-3 0 9991 2 46746 53.0554 13.4024 0001188 50.8521 20.4730 15.62768043 1801

Satellite not in orbit

STARLINK-1905